User: anonymous   Login
Location: Cornospital
(48.0620°N, 3.3837°W)
Time: 02:48:39
(UTC+00:00)
Language:

FALCON 9 DEB - Orbit

View from above orbital plane
View from above orbital plane
View from above satellite
View from above satellite

Ground track
Ground track

The orbit data is extracted from the following two-line orbital elements,

1 46086U 20055BM  21270.43000618  .00031739  00000-0  26673-3 0  9990
2 46086  53.0066  53.0213 0010489 211.9629 148.0752 15.69560639 69688
Epoch (UTC): 27 September 2021 10:19:12
Eccentricity: 0.0010489
inclination: 53.0066°
perigee height: 353 km
apogee height: 367 km
right ascension of ascending node: 53.0213°
argument of perigee: 211.9629°
revolutions per day: 15.69560639
mean anomaly at epoch: 148.0752°
orbit number at epoch: 6968

The dashed part of the orbit path shows where the satellite is in the earth's shadow,  

DLR